Theta_e
309 308 308 308 307 306 307 306 307 307 307 307 306 305 306 306 306 307 307 307 310 312 314 315 312 307 308 310 311 314 314 313 310 308 306 305 304 305 305 305 305 305 306 307 307 307 307
310 309 308 307 306 305 304 306 306 306 306 306 306 305 304 304 304 305 306 306 309 312 315 315 310 307 310 310 311 312 312 310 307 306 305 305 305 305 304 305 304 303 305 305 306 306 306
312 310 309 308 305 306 304 305 305 305 306 306 306 306 305 305 304 304 306 308 308 310 313 313 308 308 310 308 306 307 311 310 308 306 306 306 306 306 306 306 305 305 306 306 306 306 306
311 311 306 305 304 304 305 304 304 304 305 305 305 305 305 304 304 305 307 309 308 310 314 311 310 309 309 306 306 304 304 306 307 305 306 306 306 306 306 305 306 306 305 306 305 306 306
306 305 303 302 303 304 304 304 304 303 304 304 304 305 305 304 304 305 310 307 312 314 312 310 309 309 310 307 307 307 305 307 306 306 305 305 306 306 306 305 301 304 303 306 306 306 307
305 304 303 304 304 305 304 304 304 303 303 303 304 304 304 304 304 305 310 312 313 311 309 308 308 308 307 308 307 305 305 306 307 307 307 306 305 302 303 300 298 303 304 306 306 307 306
305 304 304 304 304 304 304 304 303 303 303 303 303 304 304 303 304 304 307 306 306 303 307 309 308 309 308 306 306 305 305 307 306 306 306 307 300 303 303 304 306 307 307 307 307 307 307
305 304 303 304 304 304 304 304 304 304 304 303 303 304 303 303 304 306 303 307 307 306 308 308 308 307 306 306 308 307 306 307 307 308 307 305 304 304 305 306 307 307 308 308 308 308 309
304 303 304 304 304 304 304 305 305 304 303 303 303 304 301 300 304 305 304 305 305 305 307 308 308 307 307 307 308 308 307 308 308 308 307 307 305 306 306 306 307 307 307 309 310 310 310
303 304 305 304 304 304 305 305 304 304 304 303 303 302 299 300 303 304 304 304 305 304 310 310 309 308 307 307 309 308 307 308 309 308 308 308 306 307 307 308 310 312 310 312 315 316 309
304 305 306 306 305 303 305 305 305 304 304 303 302 300 299 301 303 304 302 304 304 306 311 308 308 307 307 309 310 310 308 309 309 310 309 306 310 310 311 309 310 313 313 315 316 314 312
305 306 307 308 307 307 307 304 304 303 302 302 301 301 300 303 304 304 304 304 306 309 312 312 308 308 309 310 311 309 309 307 307 308 308 308 307 308 309 309 309 311 312 312 312 314 311
305 307 307 308 309 308 307 304 304 303 302 301 301 301 301 302 303 304 304 305 308 306 311 309 311 310 309 312 311 310 310 310 310 310 305 310 311 310 309 311 313 315 317 317 316 314 314
306 307 307 309 310 308 305 305 305 304 304 302 301 301 303 302 303 304 304 306 306 314 311 309 309 309 313 311 312 313 312 310 309 308 312 312 307 314 313 314 315 317 317 322 322 324 322
306 307 308 309 309 304 306 304 304 303 303 302 302 302 302 302 304 304 303 307 311 312 311 310 311 314 313 312 313 312 311 312 313 308 314 315 311 314 314 314 316 317 321 316 321 321 319
307 306 309 308 304 303 304 304 303 303 302 301 302 303 303 303 304 304 306 311 312 309 311 310 311 310 311 312 312 313 314 312 312 312 312 314 317 315 315 315 315 317 316 315 315 322 327
307 307 308 305 303 303 304 305 303 302 302 304 304 305 303 303 304 304 309 311 312 311 311 313 309 311 310 312 313 316 314 313 312 313 312 313 316 317 317 317 317 316 317 316 314 315 322
307 307 307 303 303 303 303 304 305 305 304 303 303 305 303 304 301 308 309 310 310 312 312 310 309 311 311 313 315 314 315 315 312 313 315 313 314 316 317 315 314 314 315 311 312 315 311
307 305 304 302 303 303 303 304 305 305 306 303 304 305 304 305 310 310 311 310 312 313 311 310 311 311 312 312 314 313 314 313 312 313 314 312 311 308 309 309 310 315 313 312 312 310 313
306 305 305 304 304 304 304 304 304 304 305 305 300 299 300 302 303 309 310 311 312 311 310 311 312 311 312 312 312 314 314 313 311 312 312 310 311 310 309 312 312 314 313 313 310 308 313
306 305 305 304 303 302 302 302 304 304 305 308 301 301 302 301 305 308 309 311 312 312 310 309 311 311 311 313 312 312 311 311 311 312 310 311 310 307 310 311 313 312 311 313 313 312 311
305 305 305 303 302 302 301 301 302 307 308 308 303 303 303 304 305 310 308 311 312 311 310 311 311 311 310 312 312 313 312 311 311 310 312 309 309 311 308 310 311 310 308 311 313 313 312
304 305 304 304 303 302 303 302 301 302 307 307 306 305 302 303 304 308 309 311 312 311 310 309 310 310 310 310 308 306 305 307 309 310 310 310 308 305 310 311 310 310 308 309 312 311 313
303 304 305 303 303 303 303 304 301 301 302 305 303 303 301 304 305 309 310 310 310 310 311 310 307 310 308 305 305 306 307 308 310 309 307 310 309 305 304 307 310 309 307 308 309 311 310
302 303 304 305 304 304 304 304 304 301 301 302 301 301 301 303 305 309 310 310 309 308 309 310 308 306 305 307 308 309 309 310 311 309 310 307 309 307 306 305 308 308 308 309 310 310 308
301 302 303 303 303 304 304 304 304 304 301 301 300 302 301 302 304 302 306 309 308 308 308 309 307 306 307 308 307 309 308 309 309 307 308 308 307 307 309 310 312 309 307 307 307 308 307
296 300 301 303 302 302 301 302 303 305 302 301 300 301 303 301 298 301 304 304 304 306 307 308 308 308 307 308 308 307 305 307 309 308 308 306 306 307 308 307 308 307 306 306 309 305 306
291 298 300 301 303 303 302 301 302 304 304 301 300 300 302 298 298 299 299 301 301 302 307 306 307 307 307 309 307 306 305 305 305 305 307 306 305 306 305 307 304 304 305 307 304 303 304
293 295 299 299 299 301 302 302 302 303 304 302 300 299 300 299 299 298 298 298 298 298 299 301 305 306 305 306 305 303 305 302 303 304 305 305 303 306 303 304 303 302 305 302 301 302 302
Wind_Speed
23 23 23 22 22 22 23 23 21 18 16 15 16 17 16 16 16 16 16 15 18 16 14 19 15 12 7 2 2 14 12 10 10 5 3 3 4 2 2 4 5 3 3 7 7 8 11
27 23 25 22 18 21 21 21 20 19 15 16 17 15 17 17 19 19 19 18 16 16 8 22 17 15 3 2 10 15 12 11 8 3 5 3 4 1 2 3 1 5 9 8 6 8 7
35 34 30 22 21 23 22 20 19 18 15 14 15 16 15 18 19 20 21 22 19 17 12 23 18 12 3 3 13 12 12 9 7 2 4 8 7 4 4 5 5 7 6 9 11 9 9
40 28 24 15 24 23 23 20 18 17 14 13 11 13 15 17 21 24 34 22 20 15 25 22 18 7 4 13 13 12 10 6 8 4 10 7 4 2 1 3 6 4 3 3 4 8 10
26 26 25 28 22 21 20 19 17 17 15 14 12 11 13 16 20 24 16 4 16 32 27 24 13 4 5 12 10 10 10 8 8 8 3 1 1 3 2 2 4 3 4 5 7 4 7
29 28 26 24 22 23 20 19 18 18 16 16 14 13 12 14 17 23 3 25 27 29 21 12 6 5 6 6 10 10 11 15 5 7 2 1 2 2 4 4 3 4 5 5 11 4 15
27 26 29 26 22 22 21 19 19 19 19 17 13 12 11 12 14 14 11 22 7 6 4 1 9 8 11 14 14 9 7 6 4 2 1 2 4 5 8 7 7 6 9 14 19 15 14
29 30 29 25 23 21 20 19 19 19 17 15 9 9 8 10 14 5 7 3 5 5 6 12 6 14 20 14 9 6 9 3 4 3 2 1 7 10 9 8 8 9 10 20 20 15 13
32 27 24 24 23 22 21 20 16 15 14 10 10 8 7 10 9 12 11 5 5 6 5 5 5 9 5 2 8 7 6 3 3 4 6 8 8 13 8 9 8 9 9 17 18 21 14
29 25 25 26 25 24 21 19 15 12 10 9 8 6 10 7 6 6 4 7 2 6 4 3 2 1 3 1 4 10 12 0 3 3 6 7 7 5 6 9 4 14 8 15 12 6 3
28 27 27 27 27 21 21 19 14 10 7 6 6 6 12 10 4 4 4 2 4 3 5 2 5 5 5 1 9 3 4 1 2 2 3 6 4 2 5 8 6 10 10 11 12 5 4
30 32 32 32 30 28 20 14 11 10 6 5 3 5 7 7 10 8 9 3 5 4 4 4 4 3 4 3 3 4 3 4 2 3 3 11 4 4 7 7 13 10 5 3 3 1 3
31 35 36 35 30 26 18 10 13 10 3 2 1 4 10 7 3 5 6 2 2 5 1 5 4 5 4 5 5 4 3 2 2 1 3 2 5 3 3 5 5 7 5 2 2 2 4
36 41 39 31 24 25 19 17 17 12 6 10 9 11 12 10 6 10 3 1 6 5 4 4 5 6 3 5 2 5 4 2 5 4 3 3 7 2 5 3 3 7 3 3 4 1 2
41 43 36 27 26 27 24 25 20 12 18 16 18 12 9 11 4 2 2 5 3 2 3 6 10 3 1 6 3 4 5 2 4 8 1 3 4 4 4 3 2 2 3 3 4 2 1
45 39 31 25 30 29 28 29 29 26 22 19 15 10 10 10 5 6 3 4 2 5 1 6 4 5 4 4 2 3 3 2 2 3 4 3 4 6 4 1 8 6 4 3 2 5 3
41 35 27 28 30 29 26 23 20 18 13 7 4 3 7 8 7 3 5 3 3 6 2 3 4 5 5 4 4 2 3 2 4 3 6 2 1 6 3 4 3 3 5 3 3 3 1
36 31 26 27 27 26 24 17 14 11 4 10 3 3 4 12 3 2 2 3 4 4 3 3 5 4 3 4 3 2 3 3 8 3 4 7 3 4 7 2 2 2 6 3 3 6 3
33 26 24 26 27 23 18 15 12 15 15 3 2 1 3 5 3 3 2 5 1 5 5 4 2 3 2 2 3 2 3 4 5 4 3 1 3 4 8 6 6 4 11 7 1 2 4
29 25 24 28 27 24 21 17 10 12 13 3 3 3 4 3 1 1 2 3 4 2 4 3 2 2 2 1 1 3 2 4 5 4 5 2 0 4 4 5 4 6 8 9 3 4 2
24 19 20 21 24 24 24 21 14 10 7 3 2 1 3 3 3 3 4 1 4 4 6 6 5 6 2 2 0 1 2 1 3 3 2 4 0 1 4 5 2 3 5 8 8 4 4
18 18 15 19 21 22 25 26 21 12 6 5 2 2 2 3 4 2 4 4 4 3 4 5 5 6 9 5 4 4 5 4 1 5 2 2 2 2 3 4 3 1 6 5 6 7 6
15 14 13 13 17 21 23 26 24 17 7 4 4 3 3 5 6 3 3 2 4 1 2 4 2 2 6 3 4 6 5 7 3 1 2 1 2 3 4 4 4 3 1 3 2 4 1
15 13 12 11 12 14 19 23 27 20 11 4 3 2 3 3 2 1 3 3 2 3 3 2 4 3 2 4 6 5 6 6 2 3 1 1 1 2 3 4 3 4 0 1 2 3 4
13 13 9 10 11 11 13 16 21 23 13 11 5 2 3 1 2 4 1 1 1 4 2 1 2 2 3 3 3 3 3 3 4 4 3 1 2 1 2 1 3 2 2 1 2 1 1
10 11 10 9 11 12 13 13 14 18 14 5 11 5 2 3 1 2 4 3 2 1 4 2 3 4 2 2 2 0 2 2 3 7 5 2 2 3 0 1 3 3 2 1 2 3 1
10 10 9 9 10 12 14 14 12 12 15 8 9 7 3 3 2 1 2 2 4 3 1 3 4 4 2 2 1 1 3 1 2 3 2 3 2 3 2 3 5 2 4 3 2 4 3
10 9 9 8 8 10 13 15 12 9 10 10 5 10 3 2 2 2 1 3 1 2 1 4 4 4 3 2 1 2 2 3 2 4 3 4 3 3 2 1 5 5 3 5 4 2 4
11 9 8 8 8 9 10 13 12 8 7 8 3 6 3 3 2 2 5 5 4 8 4 2 3 0 1 1 2 2 2 1 3 3 1 3 5 3 6 5 4 6 4 3 4 5 4
Wind_Direction
315 315 311 315 318 322 319 318 316 310 309 309 314 324 322 327 322 326 328 305 308 305 305 183 170 156 158 205 189 145 136 135 129 140 43 30 24 332 253 337 355 275 259 277 310 327 312
301 300 298 303 320 324 321 318 324 320 309 309 310 316 324 325 319 313 314 302 294 298 266 172 163 159 146 158 139 141 141 140 131 127 87 23 34 71 334 299 296 300 310 295 293 291 281
314 299 297 300 328 330 325 325 322 328 318 312 309 312 322 324 321 311 301 294 276 279 265 165 161 153 121 135 143 146 156 160 148 124 126 74 36 27 345 327 343 319 312 318 284 282 279
332 341 16 349 323 326 331 330 332 328 322 314 314 318 324 325 319 318 313 279 252 231 165 147 156 159 118 137 143 130 146 151 142 98 83 71 32 312 263 286 335 306 308 260 268 248 255
12 7 2 346 324 325 329 327 326 322 318 314 316 321 325 327 325 328 344 178 166 142 137 144 143 112 141 144 155 151 148 143 140 113 86 164 135 229 322 65 360 287 253 251 294 260 260
360 352 353 347 335 332 331 329 332 325 319 325 320 325 331 328 331 338 118 108 111 115 120 101 116 152 160 170 149 151 173 152 141 146 153 251 52 26 354 83 243 271 284 273 279 299 315
357 357 349 345 341 339 338 337 333 333 331 329 321 325 338 332 336 342 66 100 76 31 0 185 181 95 123 116 123 139 154 122 135 184 155 116 56 233 231 214 233 276 280 277 275 279 281
353 349 350 349 346 342 342 342 338 335 328 339 337 351 351 342 339 0 344 16 44 121 94 360 124 89 118 136 120 104 146 145 186 211 197 330 258 253 235 256 254 262 284 279 283 275 273
351 352 351 347 343 338 338 341 342 337 341 340 354 5 357 358 3 77 76 29 28 58 81 55 44 103 131 117 131 147 167 186 203 228 244 245 250 301 287 289 274 265 252 271 268 289 261
353 353 351 345 335 328 334 344 337 344 352 4 15 16 11 16 69 46 37 345 229 338 103 86 126 138 121 265 85 138 186 75 195 249 256 260 258 252 288 279 259 282 235 263 270 284 263
351 347 344 337 328 324 326 333 337 340 347 13 40 41 22 39 91 66 305 202 310 261 89 125 116 165 156 95 128 79 55 137 301 287 52 257 322 355 270 241 171 250 309 283 282 242 279
348 344 342 336 344 334 319 334 338 345 14 40 40 9 5 71 61 72 104 115 352 47 87 123 126 153 135 183 96 120 70 55 48 336 245 260 327 248 218 254 239 241 304 270 271 223 266
347 343 341 340 344 350 2 2 358 355 51 177 109 99 87 74 78 121 120 20 64 73 195 141 147 155 191 152 127 166 156 182 219 19 302 227 218 246 192 280 289 201 257 232 236 221 240
349 348 350 355 16 26 36 29 20 36 102 125 119 101 75 64 105 142 154 99 70 75 89 129 123 153 144 142 209 162 140 254 215 232 282 8 330 264 182 241 264 299 294 306 304 303 58
356 360 5 21 47 52 48 31 26 94 119 122 110 93 45 21 111 96 103 53 55 75 137 129 143 136 176 176 165 169 211 273 164 193 271 318 278 294 221 221 249 286 280 213 274 215 94
4 10 26 45 62 62 59 54 74 90 106 107 92 86 33 21 49 2 42 76 96 209 204 160 155 184 146 182 137 161 188 133 200 185 146 299 297 242 278 275 246 204 322 356 299 337 57
13 18 38 57 62 70 68 69 72 91 120 19 357 44 3 6 336 36 68 40 336 335 95 187 17 93 131 148 157 190 210 178 223 201 179 265 264 290 318 200 269 314 303 240 242 155 270
18 27 43 55 63 77 88 80 59 41 31 34 29 73 333 341 54 35 44 328 295 280 267 40 65 63 118 150 160 155 152 137 198 194 209 218 223 268 241 262 246 289 282 297 106 316 37
20 30 46 54 63 69 72 67 45 31 27 31 49 354 328 351 65 52 360 325 288 347 17 48 69 48 16 88 108 139 127 190 177 220 234 321 273 323 345 359 1 353 335 334 264 50 12
27 34 49 64 62 58 48 43 33 6 3 60 85 30 330 18 171 31 113 312 318 294 8 42 51 4 210 246 162 172 195 217 188 205 187 150 56 151 177 229 240 326 336 348 30 66 358
28 33 37 46 54 49 41 34 29 7 359 38 47 301 200 309 326 239 161 307 62 15 346 14 14 16 345 101 166 45 316 303 275 239 235 157 223 43 277 272 266 16 353 2 17 323 103
26 25 29 39 42 42 38 36 32 37 41 66 106 110 343 274 312 321 357 16 50 23 37 10 51 24 36 81 32 357 351 21 358 319 269 351 270 53 302 314 347 117 7 19 25 11 52
9 27 20 26 33 36 34 31 31 29 40 90 360 342 102 299 327 56 298 12 37 79 86 87 325 68 43 331 289 268 266 281 259 282 313 11 106 50 281 339 332 8 352 19 76 44 349
358 11 19 14 21 24 29 31 28 29 32 76 65 117 58 295 35 297 20 45 40 14 114 353 22 91 227 292 288 271 276 270 233 326 187 316 129 113 251 4 19 253 135 172 103 93 81
351 356 12 9 1 3 12 20 27 23 33 72 71 54 113 339 291 1 26 78 17 16 50 21 338 221 301 325 22 360 336 325 243 243 275 110 105 8 107 227 267 267 250 145 114 158 71
339 342 352 5 4 356 354 358 5 19 18 18 42 96 116 105 186 266 310 358 296 313 343 321 261 255 19 35 38 97 247 258 305 329 238 292 132 119 65 106 232 226 184 97 46 293 256
319 329 331 347 3 4 359 355 1 7 15 8 14 20 123 123 265 114 131 229 320 351 270 314 313 336 52 38 23 197 273 192 253 255 254 317 328 183 228 237 285 206 147 129 109 234 173
313 310 324 327 326 341 355 357 354 2 6 3 340 8 339 135 237 140 244 166 357 58 119 294 10 355 359 1 155 253 189 244 317 252 212 196 173 218 164 200 290 161 106 170 192 178 160
300 298 303 314 318 320 338 347 352 351 1 354 306 349 3 95 226 200 179 191 202 171 151 290 189 360 244 354 350 323 311 305 192 274 319 267 188 205 180 220 215 190 193 174 156 158 178